Time,TemperatureF,DewpointF,PressureIn,WindDirection,WindDirectionDegrees,WindSpeedMPH,WindSpeedGustMPH,Humidity,HourlyPrecipIn,Conditions,Clouds,dailyrainin,SoftwareType,DateUTC
2013-07-06 00:00:00,80.9,78.0,30.15,South,185,10.0,13.0,91,0.00,,CLR,0.00,VWS V14.01,2013-07-06 04:00:00,
2013-07-06 00:01:00,80.9,78.0,30.15,SSE,153,13.0,13.0,91,0.00,,CLR,0.00,VWS V14.01,2013-07-06 04:01:00,
2013-07-06 00:03:00,80.8,77.9,30.15,SSE,157,7.0,14.0,91,0.00,,CLR,0.00,VWS V14.01,2013-07-06 04:03:00,
2013-07-06 00:08:00,80.8,77.9,30.15,South,175,9.0,16.0,91,0.00,,CLR,0.00,VWS V14.01,2013-07-06 04:08:00,
2013-07-06 00:13:00,80.8,77.9,30.15,SSE,160,7.0,12.0,91,0.00,,CLR,0.00,VWS V14.01,2013-07-06 04:13:00,
2013-07-06 00:18:00,80.7,77.8,30.15,SSE,162,9.0,11.0,91,0.00,,CLR,0.00,VWS V14.01,2013-07-06 04:18:00,
2013-07-06 00:23:00,80.6,77.4,30.15,SSE,166,7.0,12.0,90,0.00,,CLR,0.00,VWS V14.01,2013-07-06 04:23:00,
2013-07-06 00:28:00,80.6,77.4,30.15,SSE,159,2.0,11.0,90,0.00,,CLR,0.00,VWS V14.01,2013-07-06 04:28:00,
2013-07-06 00:33:00,80.5,77.3,30.15,South,181,7.0,10.0,90,0.00,,CLR,0.00,VWS V14.01,2013-07-06 04:33:00,
2013-07-06 00:38:00,80.5,77.3,30.15,SSE,166,9.0,11.0,90,0.00,,CLR,0.00,VWS V14.01,2013-07-06 04:38:00,
2013-07-06 00:43:00,80.5,77.3,30.15,South,177,5.0,11.0,90,0.00,,CLR,0.00,VWS V14.01,2013-07-06 04:43:00,
2013-07-06 00:48:00,80.5,77.3,30.15,SSE,161,5.0,11.0,90,0.00,,CLR,0.00,VWS V14.01,2013-07-06 04:48:00,
2013-07-06 00:53:00,80.5,77.6,30.15,SSE,156,6.0,7.0,91,0.00,,CLR,0.00,VWS V14.01,2013-07-06 04:53:00,
2013-07-06 00:58:00,80.4,77.5,30.15,SSE,161,6.0,7.0,91,0.00,,CLR,0.00,VWS V14.01,2013-07-06 04:58:00,
2013-07-06 01:03:00,80.3,77.1,30.15,SSE,163,4.0,12.0,90,0.00,,CLR,0.00,VWS V14.01,2013-07-06 05:03:00,
2013-07-06 01:08:00,80.3,77.4,30.15,South,173,7.0,7.0,91,0.00,,CLR,0.00,VWS V14.01,2013-07-06 05:08:00,
2013-07-06 01:13:00,80.3,77.4,30.15,SSE,161,4.0,10.0,91,0.00,,CLR,0.00,VWS V14.01,2013-07-06 05:13:00,
2013-07-06 01:18:00,80.3,77.4,30.15,South,188,0.0,6.0,91,0.00,,CLR,0.00,VWS V14.01,2013-07-06 05:18:00,
2013-07-06 01:23:00,80.2,77.3,30.15,South,183,5.0,9.0,91,0.00,,CLR,0.00,VWS V14.01,2013-07-06 05:23:00,
2013-07-06 01:28:00,80.2,77.3,30.15,SSE,152,0.0,5.0,91,0.00,,CLR,0.00,VWS V14.01,2013-07-06 05:28:00,
2013-07-06 01:33:00,80.2,77.3,30.15,SSE,154,1.0,7.0,91,0.00,,CLR,0.00,VWS V14.01,2013-07-06 05:33:00,
2013-07-06 01:38:00,80.2,77.0,30.15,SSE,164,6.0,10.0,90,0.00,,CLR,0.00,VWS V14.01,2013-07-06 05:38:00,
2013-07-06 01:43:00,80.2,77.0,30.14,South,179,5.0,9.0,90,0.00,,CLR,0.00,VWS V14.01,2013-07-06 05:43:00,
2013-07-06 01:48:00,80.2,77.0,30.14,SSE,150,2.0,10.0,90,0.00,,CLR,0.00,VWS V14.01,2013-07-06 05:48:00,
2013-07-06 01:53:00,80.2,77.0,30.14,South,181,3.0,11.0,90,0.00,,CLR,0.00,VWS V14.01,2013-07-06 05:53:00,
2013-07-06 01:58:00,80.2,77.0,30.14,SSW,210,4.0,7.0,90,0.00,,CLR,0.00,VWS V14.01,2013-07-06 05:58:00,
2013-07-06 02:03:00,80.2,77.0,30.14,SSE,165,5.0,7.0,90,0.00,,CLR,0.00,VWS V14.01,2013-07-06 06:03:00,
2013-07-06 02:08:00,80.1,76.9,30.14,SSE,161,2.0,6.0,90,0.00,,CLR,0.00,VWS V14.01,2013-07-06 06:08:00,
2013-07-06 02:13:00,80.0,76.8,30.14,South,184,1.0,7.0,90,0.00,,CLR,0.00,VWS V14.01,2013-07-06 06:13:00,
2013-07-06 02:18:00,79.9,76.7,30.13,SW,229,5.0,5.0,90,0.00,,CLR,0.00,VWS V14.01,2013-07-06 06:18:00,
2013-07-06 02:23:00,79.8,76.6,30.14,South,180,2.0,5.0,90,0.00,,CLR,0.00,VWS V14.01,2013-07-06 06:23:00,
2013-07-06 02:28:00,79.8,76.6,30.14,South,184,2.0,7.0,90,0.00,,CLR,0.00,VWS V14.01,2013-07-06 06:28:00,
2013-07-06 02:33:00,79.8,76.6,30.14,SSW,209,4.0,6.0,90,0.00,,CLR,0.00,VWS V14.01,2013-07-06 06:33:00,
2013-07-06 02:38:00,79.8,76.6,30.14,SW,219,3.0,6.0,90,0.00,,CLR,0.00,VWS V14.01,2013-07-06 06:38:00,
2013-07-06 02:43:00,79.8,76.6,30.14,SSW,204,2.0,4.0,90,0.00,,CLR,0.00,VWS V14.01,2013-07-06 06:43:00,
2013-07-06 02:48:00,79.8,76.6,30.14,SSE,164,9.0,9.0,90,0.00,,CLR,0.00,VWS V14.01,2013-07-06 06:48:00,
2013-07-06 02:53:00,79.8,76.6,30.13,South,169,1.0,5.0,90,0.00,,CLR,0.00,VWS V14.01,2013-07-06 06:53:00,
2013-07-06 02:58:00,79.8,76.6,30.14,South,183,0.0,9.0,90,0.00,,CLR,0.00,VWS V14.01,2013-07-06 06:58:00,
2013-07-06 03:03:00,79.7,76.8,30.14,SSE,163,2.0,5.0,91,0.00,,CLR,0.00,VWS V14.01,2013-07-06 07:03:00,
2013-07-06 03:08:00,79.6,76.8,30.13,SSW,203,5.0,5.0,91,0.00,,CLR,0.00,VWS V14.01,2013-07-06 07:08:00,
2013-07-06 03:13:00,79.5,76.7,30.14,South,175,2.0,5.0,91,0.00,,CLR,0.00,VWS V14.01,2013-07-06 07:13:00,
2013-07-06 03:18:00,79.5,76.7,30.13,SSW,209,9.0,9.0,91,0.00,,CLR,0.00,VWS V14.01,2013-07-06 07:18:00,
2013-07-06 03:24:00,79.4,76.6,30.14,SW,215,12.0,12.0,91,0.00,,CLR,0.00,VWS V14.01,2013-07-06 07:24:00,
2013-07-06 03:29:00,79.4,76.6,30.14,SSW,204,2.0,5.0,91,0.00,,CLR,0.00,VWS V14.01,2013-07-06 07:29:00,
2013-07-06 03:34:00,79.4,76.6,30.14,South,180,5.0,6.0,91,0.00,,CLR,0.00,VWS V14.01,2013-07-06 07:34:00,
2013-07-06 03:39:00,79.3,76.8,30.14,SSW,197,3.0,5.0,92,0.00,,CLR,0.00,VWS V14.01,2013-07-06 07:39:00,
2013-07-06 03:44:00,79.2,76.3,30.13,SW,218,3.0,7.0,91,0.00,,CLR,0.00,VWS V14.01,2013-07-06 07:44:00,
2013-07-06 03:49:00,79.2,76.3,30.14,SSW,202,4.0,8.0,91,0.00,,CLR,0.00,VWS V14.01,2013-07-06 07:49:00,
2013-07-06 03:54:00,79.1,76.2,30.14,SW,227,6.0,7.0,91,0.00,,CLR,0.00,VWS V14.01,2013-07-06 07:54:00,
2013-07-06 03:59:00,79.1,76.2,30.14,SSW,200,5.0,10.0,91,0.00,,CLR,0.00,VWS V14.01,2013-07-06 07:59:00,
2013-07-06 04:04:00,79.1,76.2,30.14,South,184,1.0,7.0,91,0.00,,CLR,0.00,VWS V14.01,2013-07-06 08:04:00,
2013-07-06 04:09:00,79.1,76.6,30.14,South,176,3.0,6.0,92,0.00,,CLR,0.00,VWS V14.01,2013-07-06 08:09:00,
2013-07-06 04:14:00,79.0,76.5,30.14,SW,216,7.0,7.0,92,0.00,,CLR,0.00,VWS V14.01,2013-07-06 08:14:00,
2013-07-06 04:19:00,78.9,76.4,30.13,SSW,203,5.0,10.0,92,0.00,,CLR,0.00,VWS V14.01,2013-07-06 08:19:00,
2013-07-06 04:24:00,78.9,76.4,30.13,SW,232,4.0,7.0,92,0.00,,CLR,0.00,VWS V14.01,2013-07-06 08:24:00,
2013-07-06 04:29:00,78.9,76.4,30.13,SSW,198,4.0,12.0,92,0.00,,CLR,0.00,VWS V14.01,2013-07-06 08:29:00,
2013-07-06 04:34:00,78.8,76.3,30.13,SSW,212,2.0,8.0,92,0.00,,CLR,0.00,VWS V14.01,2013-07-06 08:34:00,
2013-07-06 04:39:00,78.8,76.3,30.14,SW,221,7.0,10.0,92,0.00,,CLR,0.00,VWS V14.01,2013-07-06 08:39:00,
2013-07-06 04:44:00,78.7,76.2,30.13,SW,224,5.0,9.0,92,0.00,,CLR,0.00,VWS V14.01,2013-07-06 08:44:00,
2013-07-06 04:49:00,78.7,76.2,30.14,SSW,209,3.0,8.0,92,0.00,,CLR,0.00,VWS V14.01,2013-07-06 08:49:00,
2013-07-06 04:54:00,78.7,76.2,30.13,WSW,246,5.0,7.0,92,0.00,,CLR,0.00,VWS V14.01,2013-07-06 08:54:00,
2013-07-06 04:59:00,78.7,76.2,30.13,SW,219,9.0,13.0,92,0.00,,CLR,0.00,VWS V14.01,2013-07-06 08:59:00,
2013-07-06 05:04:00,78.6,76.1,30.14,SW,221,4.0,9.0,92,0.00,,CLR,0.00,VWS V14.01,2013-07-06 09:04:00,
2013-07-06 05:09:00,78.6,76.1,30.13,South,179,9.0,9.0,92,0.00,,CLR,0.00,VWS V14.01,2013-07-06 09:09:00,
2013-07-06 05:14:00,78.5,76.0,30.13,SW,233,9.0,13.0,92,0.00,,CLR,0.00,VWS V14.01,2013-07-06 09:14:00,
2013-07-06 05:19:00,78.6,75.8,30.13,SW,226,6.0,12.0,91,0.00,,CLR,0.00,VWS V14.01,2013-07-06 09:19:00,
2013-07-06 05:24:00,78.5,76.0,30.14,SW,225,12.0,12.0,92,0.00,,CLR,0.00,VWS V14.01,2013-07-06 09:24:00,
2013-07-06 05:29:00,78.5,76.0,30.14,South,177,10.0,10.0,92,0.00,,CLR,0.00,VWS V14.01,2013-07-06 09:29:00,
2013-07-06 05:34:00,78.5,76.0,30.14,SSW,207,11.0,14.0,92,0.00,,CLR,0.00,VWS V14.01,2013-07-06 09:34:00,
2013-07-06 05:39:00,78.5,76.0,30.14,SSW,211,11.0,11.0,92,0.00,,CLR,0.00,VWS V14.01,2013-07-06 09:39:00,
2013-07-06 05:44:00,78.4,75.6,30.14,SW,228,6.0,12.0,91,0.00,,CLR,0.00,VWS V14.01,2013-07-06 09:44:00,
2013-07-06 05:49:00,78.4,75.6,30.14,SSW,203,5.0,10.0,91,0.00,,CLR,0.00,VWS V14.01,2013-07-06 09:49:00,
2013-07-06 05:54:00,78.4,75.9,30.14,SSW,204,4.0,9.0,92,0.00,,CLR,0.00,VWS V14.01,2013-07-06 09:54:00,
2013-07-06 05:59:00,78.4,75.9,30.15,SSW,213,6.0,10.0,92,0.00,,CLR,0.00,VWS V14.01,2013-07-06 09:59:00,
2013-07-06 06:04:00,78.4,75.9,30.14,SSW,206,8.0,14.0,92,0.00,,CLR,0.00,VWS V14.01,2013-07-06 10:04:00,
2013-07-06 06:09:00,78.4,75.9,30.14,SSW,211,5.0,8.0,92,0.00,,CLR,0.00,VWS V14.01,2013-07-06 10:09:00,
2013-07-06 06:14:00,78.5,76.0,30.15,SW,232,3.0,11.0,92,0.00,,CLR,0.00,VWS V14.01,2013-07-06 10:14:00,
2013-07-06 06:19:00,78.5,76.0,30.15,SW,229,9.0,11.0,92,0.00,,CLR,0.00,VWS V14.01,2013-07-06 10:19:00,
2013-07-06 06:24:00,78.5,76.0,30.15,SW,231,1.0,10.0,92,0.00,,CLR,0.00,VWS V14.01,2013-07-06 10:24:00,
2013-07-06 06:30:00,78.5,76.0,30.15,SW,216,7.0,9.0,92,0.00,,CLR,0.00,VWS V14.01,2013-07-06 10:30:00,
2013-07-06 06:35:00,78.5,75.7,30.15,WSW,239,9.0,12.0,91,0.00,,CLR,0.00,VWS V14.01,2013-07-06 10:35:00,
2013-07-06 06:40:00,78.7,76.2,30.15,WSW,246,6.0,9.0,92,0.00,,CLR,0.00,VWS V14.01,2013-07-06 10:40:00,
2013-07-06 06:45:00,78.7,76.2,30.15,SW,227,9.0,11.0,92,0.00,,CLR,0.00,VWS V14.01,2013-07-06 10:45:00,
2013-07-06 06:50:00,78.8,75.9,30.15,SW,236,4.0,10.0,91,0.00,,CLR,0.00,VWS V14.01,2013-07-06 10:50:00,
2013-07-06 06:55:00,78.9,76.4,30.15,SW,223,6.0,10.0,92,0.00,,CLR,0.00,VWS V14.01,2013-07-06 10:55:00,
2013-07-06 07:00:00,79.0,76.5,30.15,SSW,196,4.0,12.0,92,0.00,,CLR,0.00,VWS V14.01,2013-07-06 11:00:00,
2013-07-06 07:05:00,79.0,76.2,30.15,SSW,194,3.0,7.0,91,0.00,,CLR,0.00,VWS V14.01,2013-07-06 11:05:00,
2013-07-06 07:10:00,79.1,76.2,30.15,South,185,2.0,10.0,91,0.00,,CLR,0.00,VWS V14.01,2013-07-06 11:10:00,
2013-07-06 07:15:00,79.2,76.3,30.15,SW,233,11.0,11.0,91,0.00,,CLR,0.00,VWS V14.01,2013-07-06 11:15:00,
2013-07-06 07:20:00,79.2,76.3,30.15,WSW,240,5.0,7.0,91,0.00,,CLR,0.00,VWS V14.01,2013-07-06 11:20:00,
2013-07-06 07:25:00,79.4,76.6,30.15,SW,219,5.0,9.0,91,0.00,,CLR,0.00,VWS V14.01,2013-07-06 11:25:00,
2013-07-06 07:30:00,79.4,76.6,30.15,SW,236,6.0,8.0,91,0.00,,CLR,0.00,VWS V14.01,2013-07-06 11:30:00,
2013-07-06 07:35:00,79.6,76.8,30.16,SSW,207,0.0,10.0,91,0.00,,CLR,0.00,VWS V14.01,2013-07-06 11:35:00,
2013-07-06 07:40:00,79.8,76.9,30.16,SSW,213,7.0,7.0,91,0.00,,CLR,0.00,VWS V14.01,2013-07-06 11:40:00,
2013-07-06 07:45:00,79.8,76.9,30.16,SSW,202,5.0,10.0,91,0.00,,CLR,0.00,VWS V14.01,2013-07-06 11:45:00,
2013-07-06 07:50:00,79.9,77.0,30.16,SSW,199,4.0,7.0,91,0.00,,CLR,0.00,VWS V14.01,2013-07-06 11:50:00,
2013-07-06 07:55:00,80.0,77.1,30.16,SW,221,5.0,9.0,91,0.00,,CLR,0.00,VWS V14.01,2013-07-06 11:55:00,
2013-07-06 08:00:00,80.1,76.9,30.16,SW,215,2.0,6.0,90,0.00,,CLR,0.00,VWS V14.01,2013-07-06 12:00:00,
2013-07-06 08:05:00,80.2,77.0,30.16,SSW,206,1.0,10.0,90,0.00,,CLR,0.00,VWS V14.01,2013-07-06 12:05:00,
2013-07-06 08:10:00,80.3,77.1,30.16,SW,225,2.0,6.0,90,0.00,,CLR,0.00,VWS V14.01,2013-07-06 12:10:00,
2013-07-06 08:15:00,80.4,77.2,30.16,SW,226,1.0,9.0,90,0.00,,CLR,0.00,VWS V14.01,2013-07-06 12:15:00,
2013-07-06 08:20:00,80.6,77.4,30.16,WSW,242,5.0,7.0,90,0.00,,CLR,0.00,VWS V14.01,2013-07-06 12:20:00,
2013-07-06 08:25:00,80.7,77.5,30.16,SW,215,6.0,7.0,90,0.00,,CLR,0.00,VWS V14.01,2013-07-06 12:25:00,
2013-07-06 08:30:00,80.7,77.2,30.16,SW,216,6.0,10.0,89,0.00,,CLR,0.00,VWS V14.01,2013-07-06 12:30:00,
2013-07-06 08:35:00,80.6,77.1,30.16,SSW,202,1.0,10.0,89,0.00,,SKC,0.00,VWS V14.01,2013-07-06 12:35:00,
2013-07-06 08:40:00,80.8,77.3,30.16,SW,219,5.0,10.0,89,0.00,,SKC,0.00,VWS V14.01,2013-07-06 12:40:00,
2013-07-06 08:45:00,80.9,77.0,30.16,SSW,213,6.0,10.0,88,0.00,,SKC,0.00,VWS V14.01,2013-07-06 12:45:00,
2013-07-06 08:50:00,81.0,77.1,30.16,WSW,240,4.0,6.0,88,0.00,,SKC,0.00,VWS V14.01,2013-07-06 12:50:00,
2013-07-06 08:55:00,81.2,77.3,30.16,SSW,212,3.0,7.0,88,0.00,,SKC,0.00,VWS V14.01,2013-07-06 12:55:00,
2013-07-06 09:00:00,81.3,77.4,30.16,SSW,204,9.0,9.0,88,0.00,,SKC,0.00,VWS V14.01,2013-07-06 13:00:00,
2013-07-06 09:05:00,81.4,77.5,30.15,SSW,202,9.0,12.0,88,0.00,,SKC,0.00,VWS V14.01,2013-07-06 13:05:00,
2013-07-06 09:10:00,81.4,77.2,30.16,SW,229,4.0,10.0,87,0.00,,SKC,0.00,VWS V14.01,2013-07-06 13:10:00,
2013-07-06 09:15:00,81.4,77.2,30.15,WSW,238,10.0,11.0,87,0.00,,SKC,0.00,VWS V14.01,2013-07-06 13:15:00,
2013-07-06 09:20:00,81.6,77.7,30.15,SW,221,6.0,11.0,88,0.00,,SKC,0.00,VWS V14.01,2013-07-06 13:20:00,
2013-07-06 09:25:00,81.8,77.6,30.16,SW,215,4.0,9.0,87,0.00,,SKC,0.00,VWS V14.01,2013-07-06 13:25:00,
2013-07-06 09:30:00,82.0,78.1,30.15,SW,227,6.0,7.0,88,0.00,,SKC,0.00,VWS V14.01,2013-07-06 13:30:00,
2013-07-06 09:35:00,82.2,77.6,30.15,SSW,211,4.0,12.0,86,0.00,,SKC,0.00,VWS V14.01,2013-07-06 13:35:00,
2013-07-06 09:40:00,82.1,77.8,30.15,SSW,210,2.0,8.0,87,0.00,,SKC,0.00,VWS V14.01,2013-07-06 13:40:00,
2013-07-06 09:45:00,82.3,78.1,30.15,SSW,209,6.0,10.0,87,0.00,,SKC,0.00,VWS V14.01,2013-07-06 13:45:00,
2013-07-06 09:50:00,82.5,78.2,30.15,SSW,211,6.0,7.0,87,0.00,,SKC,0.00,VWS V14.01,2013-07-06 13:50:00,
2013-07-06 09:55:00,82.7,78.4,30.15,WSW,249,4.0,7.0,87,0.00,,SKC,0.00,VWS V14.01,2013-07-06 13:55:00,
2013-07-06 10:00:00,82.6,77.6,30.15,SW,215,5.0,11.0,85,0.00,,SKC,0.00,VWS V14.01,2013-07-06 14:00:00,
2013-07-06 10:06:00,82.8,78.5,30.15,SW,217,1.0,5.0,87,0.00,,SKC,0.00,VWS V14.01,2013-07-06 14:06:00,
2013-07-06 10:11:00,82.9,77.9,30.15,SW,223,5.0,8.0,85,0.00,,SKC,0.00,VWS V14.01,2013-07-06 14:11:00,
2013-07-06 10:16:00,83.2,78.6,30.15,WSW,237,3.0,6.0,86,0.00,,SKC,0.00,VWS V14.01,2013-07-06 14:16:00,
2013-07-06 10:21:00,83.3,78.7,30.16,SW,214,5.0,10.0,86,0.00,,SKC,0.00,VWS V14.01,2013-07-06 14:21:00,
2013-07-06 10:26:00,83.4,78.8,30.15,South,180,2.0,7.0,86,0.00,,SKC,0.00,VWS V14.01,2013-07-06 14:26:00,
2013-07-06 10:31:00,83.5,78.2,30.15,SSW,204,6.0,7.0,84,0.00,,SKC,0.00,VWS V14.01,2013-07-06 14:31:00,
2013-07-06 10:36:00,83.6,78.6,30.15,West,262,2.0,6.0,85,0.00,,SKC,0.00,VWS V14.01,2013-07-06 14:36:00,
2013-07-06 10:41:00,83.7,78.3,30.15,SSW,209,2.0,6.0,84,0.00,,SKC,0.00,VWS V14.01,2013-07-06 14:41:00,
2013-07-06 10:46:00,84.0,78.7,30.15,SW,235,4.0,10.0,84,0.00,,SKC,0.00,VWS V14.01,2013-07-06 14:46:00,
2013-07-06 10:51:00,84.1,78.8,30.15,SSW,209,6.0,7.0,84,0.00,,SKC,0.00,VWS V14.01,2013-07-06 14:51:00,
2013-07-06 10:56:00,84.2,78.8,30.15,South,175,5.0,9.0,84,0.00,,SKC,0.00,VWS V14.01,2013-07-06 14:56:00,
2013-07-06 11:01:00,84.2,78.5,30.15,WSW,244,2.0,7.0,83,0.00,,SKC,0.00,VWS V14.01,2013-07-06 15:01:00,
2013-07-06 11:06:00,84.3,78.6,30.15,WSW,250,6.0,10.0,83,0.00,,SKC,0.00,VWS V14.01,2013-07-06 15:06:00,
2013-07-06 11:11:00,84.2,78.1,30.15,SW,219,0.0,7.0,82,0.00,,SKC,0.00,VWS V14.01,2013-07-06 15:11:00,
2013-07-06 11:16:00,84.2,78.5,30.15,WSW,243,6.0,9.0,83,0.00,,SKC,0.00,VWS V14.01,2013-07-06 15:16:00,
2013-07-06 11:21:00,84.2,78.5,30.15,SW,225,11.0,11.0,83,0.00,,SKC,0.00,VWS V14.01,2013-07-06 15:21:00,
2013-07-06 11:26:00,84.3,78.6,30.15,SW,227,4.0,8.0,83,0.00,,SKC,0.00,VWS V14.01,2013-07-06 15:26:00,
2013-07-06 11:31:00,84.4,78.7,30.15,WSW,243,7.0,8.0,83,0.00,,SKC,0.00,VWS V14.01,2013-07-06 15:31:00,
2013-07-06 11:36:00,84.6,79.2,30.15,South,181,0.0,6.0,84,0.00,,SKC,0.00,VWS V14.01,2013-07-06 15:36:00,
2013-07-06 11:41:00,85.1,79.7,30.15,SSW,209,2.0,5.0,84,0.00,,SKC,0.00,VWS V14.01,2013-07-06 15:41:00,
2013-07-06 11:46:00,85.3,78.8,30.15,SSW,204,3.0,7.0,81,0.00,,SKC,0.00,VWS V14.01,2013-07-06 15:46:00,
2013-07-06 11:51:00,85.4,79.3,30.15,SSE,168,3.0,7.0,82,0.00,,SKC,0.00,VWS V14.01,2013-07-06 15:51:00,
2013-07-06 11:56:00,85.6,79.8,30.14,South,178,4.0,10.0,83,0.00,,SKC,0.00,VWS V14.01,2013-07-06 15:56:00,
2013-07-06 12:01:00,85.6,79.5,30.14,South,176,6.0,11.0,82,0.00,,SKC,0.00,VWS V14.01,2013-07-06 16:01:00,
2013-07-06 12:06:00,85.6,79.5,30.14,South,183,6.0,9.0,82,0.00,,SKC,0.00,VWS V14.01,2013-07-06 16:06:00,
2013-07-06 12:11:00,85.8,80.0,30.14,South,172,7.0,7.0,83,0.00,,SKC,0.00,VWS V14.01,2013-07-06 16:11:00,
2013-07-06 12:16:00,85.9,79.8,30.14,SSE,168,5.0,9.0,82,0.00,,SKC,0.00,VWS V14.01,2013-07-06 16:16:00,
2013-07-06 12:21:00,85.9,80.1,30.14,SSE,152,3.0,6.0,83,0.00,,SKC,0.00,VWS V14.01,2013-07-06 16:21:00,
2013-07-06 12:28:00,85.9,80.1,30.14,South,175,7.0,10.0,83,0.00,,SKC,0.00,VWS V14.01,2013-07-06 16:28:00,
2013-07-06 12:33:00,85.9,80.9,30.14,SW,228,6.0,9.0,85,0.00,,FEW050,0.00,VWS V14.01,2013-07-06 16:33:00,
2013-07-06 12:38:00,85.8,79.7,30.14,South,176,6.0,9.0,82,0.00,,FEW050,0.00,VWS V14.01,2013-07-06 16:38:00,
2013-07-06 12:43:00,85.8,79.7,30.13,South,186,2.0,9.0,82,0.00,,FEW050,0.00,VWS V14.01,2013-07-06 16:43:00,
2013-07-06 12:48:00,86.2,79.7,30.13,South,177,5.0,10.0,81,0.00,,FEW050,0.00,VWS V14.01,2013-07-06 16:48:00,
2013-07-06 12:53:00,86.3,80.2,30.13,South,181,6.0,10.0,82,0.00,,FEW050,0.00,VWS V14.01,2013-07-06 16:53:00,
2013-07-06 12:58:00,86.3,80.2,30.13,South,182,4.0,11.0,82,0.00,,FEW050,0.00,VWS V14.01,2013-07-06 16:58:00,
2013-07-06 13:03:00,86.3,80.5,30.13,SSE,158,6.0,9.0,83,0.00,,FEW050,0.00,VWS V14.01,2013-07-06 17:03:00,
2013-07-06 13:09:00,86.4,80.3,30.13,South,187,5.0,10.0,82,0.00,,FEW050,0.00,VWS V14.01,2013-07-06 17:09:00,
2013-07-06 13:14:00,86.6,80.8,30.12,SSE,157,7.0,9.0,83,0.00,,FEW050,0.00,VWS V14.01,2013-07-06 17:14:00,
2013-07-06 13:19:00,86.7,80.6,30.12,SSE,167,5.0,10.0,82,0.00,,FEW050,0.00,VWS V14.01,2013-07-06 17:19:00,
2013-07-06 13:25:00,86.5,80.3,30.12,SSE,161,9.0,10.0,82,0.00,,FEW050,0.00,VWS V14.01,2013-07-06 17:25:00,
2013-07-06 13:30:00,86.4,80.6,30.12,SSE,158,4.0,10.0,83,0.00,,FEW050,0.00,VWS V14.01,2013-07-06 17:30:00,
2013-07-06 13:35:00,86.6,80.8,30.12,South,172,7.0,12.0,83,0.00,,FEW050,0.00,VWS V14.01,2013-07-06 17:35:00,
2013-07-06 13:40:00,86.9,79.6,30.12,SSE,161,6.0,9.0,79,0.00,,FEW050,0.00,VWS V14.01,2013-07-06 17:40:00,
2013-07-06 13:45:00,87.0,80.8,30.12,South,171,8.0,11.0,82,0.00,,FEW050,0.00,VWS V14.01,2013-07-06 17:45:00,
2013-07-06 13:50:00,86.9,80.0,30.11,SSE,166,10.0,13.0,80,0.00,,FEW050,0.00,VWS V14.01,2013-07-06 17:50:00,
2013-07-06 13:56:00,87.1,80.2,30.11,South,172,7.0,11.0,80,0.00,,FEW050,0.00,VWS V14.01,2013-07-06 17:56:00,
2013-07-06 14:01:00,87.4,80.9,30.11,South,181,4.0,9.0,81,0.00,,FEW050,0.00,VWS V14.01,2013-07-06 18:01:00,
2013-07-06 14:07:00,87.6,80.3,30.11,South,173,5.0,6.0,79,0.00,,FEW050,0.00,VWS V14.01,2013-07-06 18:07:00,
2013-07-06 14:12:00,87.7,80.4,30.11,SSE,163,6.0,12.0,79,0.00,,FEW050,0.00,VWS V14.01,2013-07-06 18:12:00,
2013-07-06 14:17:00,87.7,80.0,30.11,SSE,157,8.0,11.0,78,0.00,,FEW050,0.00,VWS V14.01,2013-07-06 18:17:00,
2013-07-06 14:22:00,87.3,80.8,30.11,South,177,4.0,10.0,81,0.00,,FEW050,0.00,VWS V14.01,2013-07-06 18:22:00,
2013-07-06 14:27:00,87.2,79.5,30.11,South,174,12.0,13.0,78,0.00,,FEW050,0.00,VWS V14.01,2013-07-06 18:27:00,
2013-07-06 14:32:00,87.4,80.9,30.11,SSE,156,5.0,7.0,81,0.00,,FEW050,0.00,VWS V14.01,2013-07-06 18:32:00,
2013-07-06 14:37:00,87.7,81.2,30.11,South,191,8.0,8.0,81,0.00,,FEW050,0.00,VWS V14.01,2013-07-06 18:37:00,
2013-07-06 14:42:00,88.2,81.6,30.10,South,175,9.0,9.0,81,0.00,,FEW050,0.00,VWS V14.01,2013-07-06 18:42:00,
2013-07-06 14:48:00,88.1,80.4,30.10,SSE,157,9.0,9.0,78,0.00,,FEW050,0.00,VWS V14.01,2013-07-06 18:48:00,
2013-07-06 14:53:00,88.2,81.2,30.10,SSE,167,6.0,9.0,80,0.00,,FEW050,0.00,VWS V14.01,2013-07-06 18:53:00,
2013-07-06 14:58:00,87.9,80.6,30.10,South,177,9.0,11.0,79,0.00,,FEW050,0.00,VWS V14.01,2013-07-06 18:58:00,
2013-07-06 15:03:00,87.5,80.2,30.10,SSE,157,6.0,13.0,79,0.00,,FEW050,0.00,VWS V14.01,2013-07-06 19:03:00,
2013-07-06 15:08:00,87.3,80.0,30.09,SSE,160,9.0,14.0,79,0.00,,FEW050,0.00,VWS V14.01,2013-07-06 19:08:00,
2013-07-06 15:14:00,87.2,81.0,30.09,SSE,157,9.0,10.0,82,0.00,,FEW050,0.00,VWS V14.01,2013-07-06 19:14:00,
2013-07-06 15:19:00,86.9,80.4,30.09,SSE,157,6.0,12.0,81,0.00,,FEW050,0.00,VWS V14.01,2013-07-06 19:19:00,
2013-07-06 15:24:00,87.1,80.6,30.09,SSW,196,10.0,12.0,81,0.00,,FEW050,0.00,VWS V14.01,2013-07-06 19:24:00,
2013-07-06 15:30:00,87.2,80.7,30.09,SSE,166,6.0,12.0,81,0.00,,FEW050,0.00,VWS V14.01,2013-07-06 19:30:00,
2013-07-06 15:36:00,87.2,80.3,30.09,SSW,199,5.0,13.0,80,0.00,,SCT040,0.00,VWS V14.01,2013-07-06 19:36:00,
2013-07-06 15:41:00,87.3,80.8,30.09,South,179,5.0,9.0,81,0.00,,SCT040,0.00,VWS V14.01,2013-07-06 19:41:00,
2013-07-06 15:46:00,87.5,80.9,30.08,SSE,164,9.0,10.0,81,0.00,,SCT040,0.00,VWS V14.01,2013-07-06 19:46:00,
2013-07-06 15:52:00,87.7,81.2,30.08,South,179,8.0,11.0,81,0.00,,SCT040,0.00,VWS V14.01,2013-07-06 19:52:00,
2013-07-06 15:57:00,87.5,80.2,30.08,SSE,159,5.0,13.0,79,0.00,,SCT040,0.00,VWS V14.01,2013-07-06 19:57:00,
2013-07-06 16:02:00,87.3,80.8,30.08,SSE,166,7.0,13.0,81,0.00,,SCT040,0.00,VWS V14.01,2013-07-06 20:02:00,
2013-07-06 16:07:00,87.3,80.4,30.08,South,170,11.0,12.0,80,0.00,,SCT040,0.00,VWS V14.01,2013-07-06 20:07:00,
2013-07-06 16:12:00,87.4,80.5,30.08,SSE,167,9.0,13.0,80,0.00,,SCT040,0.00,VWS V14.01,2013-07-06 20:12:00,
2013-07-06 16:17:00,87.3,80.4,30.08,South,169,6.0,11.0,80,0.00,,SCT040,0.00,VWS V14.01,2013-07-06 20:17:00,
2013-07-06 16:22:00,87.3,80.8,30.08,SSE,167,9.0,11.0,81,0.00,,SCT040,0.00,VWS V14.01,2013-07-06 20:22:00,
2013-07-06 16:28:00,87.3,80.8,30.07,SSE,160,6.0,10.0,81,0.00,,SCT040,0.00,VWS V14.01,2013-07-06 20:28:00,
2013-07-06 16:33:00,87.3,80.8,30.07,SSE,167,7.0,10.0,81,0.00,,SCT040,0.00,VWS V14.01,2013-07-06 20:33:00,
2013-07-06 16:38:00,87.2,80.7,30.07,South,172,10.0,11.0,81,0.00,,SCT040,0.00,VWS V14.01,2013-07-06 20:38:00,
2013-07-06 16:43:00,87.1,80.6,30.07,SSE,150,9.0,11.0,81,0.00,,SCT040,0.00,VWS V14.01,2013-07-06 20:43:00,
2013-07-06 16:49:00,87.1,80.6,30.07,South,177,10.0,11.0,81,0.00,,SCT040,0.00,VWS V14.01,2013-07-06 20:49:00,
2013-07-06 16:54:00,87.0,80.5,30.07,South,175,8.0,14.0,81,0.00,,SCT040,0.00,VWS V14.01,2013-07-06 20:54:00,
2013-07-06 16:59:00,87.0,80.5,30.07,South,169,3.0,10.0,81,0.00,,SCT040,0.00,VWS V14.01,2013-07-06 20:59:00,
2013-07-06 17:04:00,87.0,80.5,30.07,SSE,167,10.0,12.0,81,0.00,,SCT040,0.00,VWS V14.01,2013-07-06 21:04:00,
2013-07-06 17:09:00,87.1,80.2,30.07,SSW,197,4.0,10.0,80,0.00,,SCT040,0.00,VWS V14.01,2013-07-06 21:09:00,
2013-07-06 17:14:00,87.1,80.2,30.07,SSE,158,4.0,10.0,80,0.00,,SCT040,0.00,VWS V14.01,2013-07-06 21:14:00,
2013-07-06 17:20:00,87.0,80.1,30.07,South,171,8.0,11.0,80,0.00,,SCT040,0.00,VWS V14.01,2013-07-06 21:20:00,
2013-07-06 17:25:00,87.0,80.1,30.06,South,173,7.0,12.0,80,0.00,,SCT040,0.00,VWS V14.01,2013-07-06 21:25:00,
2013-07-06 17:30:00,86.9,80.4,30.06,South,172,5.0,8.0,81,0.00,,SCT040,0.00,VWS V14.01,2013-07-06 21:30:00,
2013-07-06 17:36:00,86.9,80.4,30.06,SSE,163,6.0,10.0,81,0.00,,SCT040,0.00,VWS V14.01,2013-07-06 21:36:00,
2013-07-06 17:42:00,86.9,80.4,30.06,SSE,157,5.0,9.0,81,0.00,,SCT040,0.00,VWS V14.01,2013-07-06 21:42:00,
2013-07-06 17:47:00,87.0,80.5,30.06,SSW,192,4.0,10.0,81,0.00,,SCT040,0.00,VWS V14.01,2013-07-06 21:47:00,
2013-07-06 17:52:00,87.2,80.3,30.06,SSE,152,5.0,6.0,80,0.00,,SCT040,0.00,VWS V14.01,2013-07-06 21:52:00,
2013-07-06 17:57:00,87.3,80.4,30.06,SSE,152,6.0,9.0,80,0.00,,SCT040,0.00,VWS V14.01,2013-07-06 21:57:00,
2013-07-06 18:02:00,87.3,79.2,30.05,South,186,1.0,10.0,77,0.00,,SCT040,0.00,VWS V14.01,2013-07-06 22:02:00,
2013-07-06 18:07:00,87.2,79.5,30.05,South,173,1.0,10.0,78,0.00,,SCT040,0.00,VWS V14.01,2013-07-06 22:07:00,
2013-07-06 18:13:00,87.2,80.3,30.05,South,181,0.0,7.0,80,0.00,,SCT040,0.00,VWS V14.01,2013-07-06 22:13:00,
2013-07-06 18:18:00,87.2,79.5,30.05,SW,228,4.0,6.0,78,0.00,,SCT040,0.00,VWS V14.01,2013-07-06 22:18:00,
2013-07-06 18:24:00,87.3,80.0,30.05,SSE,164,1.0,5.0,79,0.00,,SCT040,0.00,VWS V14.01,2013-07-06 22:24:00,
2013-07-06 18:29:00,87.2,79.5,30.05,SSW,198,1.0,7.0,78,0.00,,SCT040,0.00,VWS V14.01,2013-07-06 22:29:00,
2013-07-06 18:34:00,87.2,79.1,30.05,SW,223,5.0,9.0,77,0.00,,SCT040,0.00,VWS V14.01,2013-07-06 22:34:00,
2013-07-06 18:39:00,87.0,78.9,30.05,SW,225,4.0,9.0,77,0.00,,SCT040,0.00,VWS V14.01,2013-07-06 22:39:00,
2013-07-06 18:44:00,86.9,78.8,30.05,SSW,213,4.0,7.0,77,0.00,,SCT040,0.00,VWS V14.01,2013-07-06 22:44:00,
2013-07-06 18:50:00,86.8,78.7,30.05,SW,234,6.0,7.0,77,0.00,,SCT040,0.00,VWS V14.01,2013-07-06 22:50:00,
2013-07-06 18:55:00,86.8,79.1,30.05,SSE,165,7.0,9.0,78,0.00,,SCT040,0.00,VWS V14.01,2013-07-06 22:55:00,
2013-07-06 19:00:00,86.6,78.9,30.05,SSE,157,2.0,5.0,78,0.00,,SCT040,0.00,VWS V14.01,2013-07-06 23:00:00,
2013-07-06 19:05:00,86.6,79.3,30.05,South,181,0.0,5.0,79,0.00,,SCT040,0.00,VWS V14.01,2013-07-06 23:05:00,
2013-07-06 19:10:00,86.3,79.0,30.05,South,175,0.0,9.0,79,0.00,,SCT040,0.00,VWS V14.01,2013-07-06 23:10:00,
2013-07-06 19:16:00,86.2,79.3,30.05,SSW,211,5.0,5.0,80,0.00,,SCT040,0.00,VWS V14.01,2013-07-06 23:16:00,
2013-07-06 19:21:00,86.0,79.1,30.05,SSW,210,2.0,6.0,80,0.00,,SCT040,0.00,VWS V14.01,2013-07-06 23:21:00,
2013-07-06 19:27:00,85.9,79.0,30.05,WSW,238,4.0,5.0,80,0.00,,SCT040,0.00,VWS V14.01,2013-07-06 23:27:00,
2013-07-06 19:32:00,85.7,78.8,30.05,South,181,3.0,5.0,80,0.00,,FEW040,0.00,VWS V14.01,2013-07-06 23:32:00,
2013-07-06 19:37:00,85.6,78.7,30.05,SSW,196,1.0,7.0,80,0.00,,FEW040,0.00,VWS V14.01,2013-07-06 23:37:00,
2013-07-06 19:43:00,85.4,78.9,30.05,SSE,157,3.0,6.0,81,0.00,,FEW040,0.00,VWS V14.01,2013-07-06 23:43:00,
2013-07-06 19:48:00,85.2,78.7,30.05,SSW,213,0.0,6.0,81,0.00,,FEW040,0.00,VWS V14.01,2013-07-06 23:48:00,
2013-07-06 19:53:00,84.9,78.4,30.05,South,177,2.0,9.0,81,0.00,,FEW040,0.00,VWS V14.01,2013-07-06 23:53:00,
2013-07-06 19:58:00,84.7,77.8,30.05,SSE,168,3.0,7.0,80,0.00,,FEW040,0.00,VWS V14.01,2013-07-06 23:58:00,
2013-07-06 20:03:00,84.6,77.8,30.05,SSW,211,0.0,4.0,80,0.00,,FEW040,0.00,VWS V14.01,2013-07-07 00:03:00,
2013-07-06 20:09:00,84.5,77.7,30.05,South,188,1.0,7.0,80,0.00,,FEW040,0.00,VWS V14.01,2013-07-07 00:09:00,
2013-07-06 20:14:00,84.2,77.4,30.05,SW,218,7.0,7.0,80,0.00,,SKC,0.00,VWS V14.01,2013-07-07 00:14:00,
2013-07-06 20:19:00,84.1,77.3,30.05,SSW,206,7.0,9.0,80,0.00,,SKC,0.00,VWS V14.01,2013-07-07 00:19:00,
2013-07-06 20:24:00,84.0,77.2,30.05,SW,231,4.0,9.0,80,0.00,,SKC,0.00,VWS V14.01,2013-07-07 00:24:00,
2013-07-06 20:29:00,83.9,77.4,30.06,South,186,3.0,6.0,81,0.00,,SKC,0.00,VWS V14.01,2013-07-07 00:29:00,
2013-07-06 20:35:00,83.8,77.3,30.06,SW,217,2.0,6.0,81,0.00,,SKC,0.00,VWS V14.01,2013-07-07 00:35:00,
2013-07-06 20:40:00,83.6,77.2,30.06,SSW,196,3.0,4.0,81,0.00,,SKC,0.00,VWS V14.01,2013-07-07 00:40:00,
2013-07-06 20:45:00,83.5,77.1,30.06,South,188,4.0,10.0,81,0.00,,SKC,0.00,VWS V14.01,2013-07-07 00:45:00,
2013-07-06 20:51:00,83.6,76.8,30.06,SW,216,4.0,6.0,80,0.00,,SKC,0.00,VWS V14.01,2013-07-07 00:51:00,
2013-07-06 20:57:00,83.5,77.1,30.06,SSE,149,0.0,4.0,81,0.00,,SKC,0.00,VWS V14.01,2013-07-07 00:57:00,
2013-07-06 21:01:00,83.3,76.9,30.06,South,186,2.0,7.0,81,0.00,,SKC,0.00,VWS V14.01,2013-07-07 01:01:00,
2013-07-06 21:07:00,83.2,76.8,30.06,SW,214,0.0,7.0,81,0.00,,SKC,0.00,VWS V14.01,2013-07-07 01:07:00,
2013-07-06 21:12:00,83.2,77.1,30.06,SSW,202,0.0,2.0,82,0.00,,SKC,0.00,VWS V14.01,2013-07-07 01:12:00,
2013-07-06 21:17:00,83.1,77.4,30.06,SSE,162,2.0,5.0,83,0.00,,SKC,0.00,VWS V14.01,2013-07-07 01:17:00,
2013-07-06 21:22:00,83.0,77.3,30.06,South,176,2.0,4.0,83,0.00,,SKC,0.00,VWS V14.01,2013-07-07 01:22:00,
2013-07-06 21:27:00,82.9,77.2,30.07,SW,215,3.0,5.0,83,0.00,,SKC,0.00,VWS V14.01,2013-07-07 01:27:00,
2013-07-06 21:32:00,82.7,77.0,30.07,SW,215,3.0,4.0,83,0.00,,SKC,0.00,VWS V14.01,2013-07-07 01:32:00,
2013-07-06 21:37:00,82.6,76.6,30.07,SSW,194,3.0,5.0,82,0.00,,SKC,0.00,VWS V14.01,2013-07-07 01:37:00,
2013-07-06 21:43:00,82.5,76.4,30.07,SW,215,1.0,4.0,82,0.00,,SKC,0.00,VWS V14.01,2013-07-07 01:43:00,
2013-07-06 21:48:00,82.5,76.4,30.08,SW,219,0.0,3.0,82,0.00,,SKC,0.00,VWS V14.01,2013-07-07 01:48:00,
2013-07-06 21:54:00,82.5,76.4,30.08,SW,223,9.0,10.0,82,0.00,,SKC,0.00,VWS V14.01,2013-07-07 01:54:00,
2013-07-06 21:59:00,82.4,76.0,30.08,SSW,208,0.0,5.0,81,0.00,,SKC,0.00,VWS V14.01,2013-07-07 01:59:00,
2013-07-06 22:04:00,82.3,76.3,30.08,SSE,154,3.0,6.0,82,0.00,,SKC,0.00,VWS V14.01,2013-07-07 02:04:00,
2013-07-06 22:10:00,82.4,76.4,30.08,South,186,1.0,10.0,82,0.00,,SKC,0.00,VWS V14.01,2013-07-07 02:10:00,
2013-07-06 22:15:00,82.3,76.3,30.08,South,175,2.0,3.0,82,0.00,,SKC,0.00,VWS V14.01,2013-07-07 02:15:00,
2013-07-06 22:20:00,82.3,76.3,30.08,SW,218,3.0,5.0,82,0.00,,SKC,0.00,VWS V14.01,2013-07-07 02:20:00,
2013-07-06 22:26:00,82.2,76.2,30.08,SW,216,0.0,8.0,82,0.00,,SKC,0.00,VWS V14.01,2013-07-07 02:26:00,
2013-07-06 22:31:00,82.1,76.1,30.08,SSW,192,1.0,5.0,82,0.00,,SKC,0.00,VWS V14.01,2013-07-07 02:31:00,
2013-07-06 22:36:00,82.1,76.1,30.08,SW,214,0.0,6.0,82,0.00,,SKC,0.00,VWS V14.01,2013-07-07 02:36:00,
2013-07-06 22:41:00,82.0,76.0,30.09,South,175,0.0,7.0,82,0.00,,SKC,0.00,VWS V14.01,2013-07-07 02:41:00,
2013-07-06 22:46:00,82.0,76.0,30.08,SSW,199,0.0,4.0,82,0.00,,SKC,0.00,VWS V14.01,2013-07-07 02:46:00,
2013-07-06 22:52:00,82.0,76.0,30.09,SSW,193,0.0,8.0,82,0.00,,SKC,0.00,VWS V14.01,2013-07-07 02:52:00,
2013-07-06 22:58:00,81.8,75.8,30.09,SSW,209,5.0,10.0,82,0.00,,SKC,0.00,VWS V14.01,2013-07-07 02:58:00,
2013-07-06 23:03:00,81.8,75.8,30.09,SW,229,6.0,6.0,82,0.00,,SKC,0.00,VWS V14.01,2013-07-07 03:03:00,
2013-07-06 23:08:00,81.8,75.8,30.09,WSW,238,4.0,6.0,82,0.00,,SKC,0.00,VWS V14.01,2013-07-07 03:08:00,
2013-07-06 23:14:00,81.7,75.7,30.09,SSW,211,5.0,8.0,82,0.00,,SKC,0.00,VWS V14.01,2013-07-07 03:14:00,
2013-07-06 23:19:00,81.6,75.6,30.09,SW,214,5.0,7.0,82,0.00,,SKC,0.00,VWS V14.01,2013-07-07 03:19:00,
2013-07-06 23:24:00,81.6,75.6,30.09,SW,217,7.0,7.0,82,0.00,,SKC,0.00,VWS V14.01,2013-07-07 03:24:00,
2013-07-06 23:29:00,81.6,75.6,30.09,SSW,203,1.0,3.0,82,0.00,,SKC,0.00,VWS V14.01,2013-07-07 03:29:00,
2013-07-06 23:34:00,81.5,75.8,30.09,SW,226,7.0,7.0,83,0.00,,CLR,0.00,VWS V14.01,2013-07-07 03:34:00,
2013-07-06 23:39:00,81.5,75.8,30.09,SSW,204,1.0,6.0,83,0.00,,CLR,0.00,VWS V14.01,2013-07-07 03:39:00,
2013-07-06 23:44:00,81.4,75.4,30.09,SSW,209,3.0,7.0,82,0.00,,CLR,0.00,VWS V14.01,2013-07-07 03:44:00,
2013-07-06 23:50:00,81.4,75.4,30.09,SSW,202,4.0,11.0,82,0.00,,CLR,0.00,VWS V14.01,2013-07-07 03:50:00,
2013-07-06 23:55:00,81.4,75.4,30.09,SSE,155,0.0,9.0,82,0.00,,CLR,0.00,VWS V14.01,2013-07-07 03:55:00,